DW1121 Weather Reports


Display with metric or nautical units.
time (UTC)temp
F
wind
direction
speed
MPH
gust
MPH
rain 1hr
in
rain 24hr
in
rain mn
in
humidity
%
barometer
mb
20260505194104 78 137 3.0 5.0 0.00 0.00 0.00 30 1013.7
20260505193604 78 212 5.0 7.0 0.00 0.00 0.00 29 1013.9
20260505193105 78 178 3.0 6.0 0.00 0.00 0.00 27 1013.9
20260505192605 77 200 5.0 6.0 0.00 0.00 0.00 27 1014.0
20260505191105 78 187 0.0 0.0 0.00 0.00 0.00 26 1014.3
20260505190604 79 151 0.0 2.0 0.00 0.00 0.00 27 1014.3
20260505190105 78 174 1.0 2.0 0.00 0.00 0.00 28 1014.3
20260505185604 78 159 0.0 1.0 0.00 0.00 0.00 28 1014.3
20260505185104 78 222 0.0 2.0 0.00 0.00 0.00 29 1014.5
20260505184604 79 150 2.0 2.0 0.00 0.00 0.00 27 1014.5
20260505184104 79 204 0.0 2.0 0.00 0.00 0.00 27 1014.5
20260505183604 79 186 0.0 1.0 0.00 0.00 0.00 27 1014.6
20260505183105 78 187 1.0 3.0 0.00 0.00 0.00 27 1014.6
20260505182605 78 136 0.0 0.0 0.00 0.00 0.00 28 1014.8
20260505182105 77 220 0.0 2.0 0.00 0.00 0.00 27 1014.8
20260505181605 77 254 1.0 1.0 0.00 0.00 0.00 27 1014.8
20260505181105 78 202 0.0 2.0 0.00 0.00 0.00 27 1015.1
20260505180604 78 190 0.0 1.0 0.00 0.00 0.00 28 1015.1
20260505175604 77 198 2.0 2.0 0.00 0.00 0.00 30 1015.2
20260505175105 76 94 1.0 6.0 0.00 0.00 0.00 32 1015.3
20260505174605 77 175 1.0 3.0 0.00 0.00 0.00 33 1015.3
20260505174104 77 104 2.0 3.0 0.00 0.00 0.00 35 1015.3
20260505173605 75 203 2.0 5.0 0.00 0.00 0.00 35 1015.6
20260505173105 76 207 3.0 8.0 0.00 0.00 0.00 37 1015.6
20260505172605 76 212 1.0 2.0 0.00 0.00 0.00 37 1015.7
20260505172105 76 4 0.0 2.0 0.00 0.00 0.00 36 1015.7
20260505171605 75 214 1.0 2.0 0.00 0.00 0.00 37 1015.7
20260505171105 76 171 2.0 3.0 0.00 0.00 0.00 36 1015.7
20260505170605 76 205 1.0 3.0 0.00 0.00 0.00 35 1015.7
20260505170105 76 214 0.0 1.0 0.00 0.00 0.00 35 1015.8
20260505165604 76 189 2.0 3.0 0.00 0.00 0.00 36 1015.8
20260505165104 77 251 0.0 1.0 0.00 0.00 0.00 35 1016.1
20260505164105 75 202 5.0 7.0 0.00 0.00 0.00 36 1016.1
20260505163105 76 270 3.0 6.0 0.00 0.00 0.00 37 1016.2
20260505162104 74 254 1.0 5.0 0.00 0.00 0.00 37 1016.0
20260505161605 74 141 1.0 6.0 0.00 0.00 0.00 38 1016.0
20260505161105 73 258 0.0 6.0 0.00 0.00 0.00 37 1016.0
20260505160606 73 221 1.0 2.0 0.00 0.00 0.00 39 1016.0
20260505160105 73 180 1.0 3.0 0.00 0.00 0.00 39 1015.9
20260505153105 72 154 1.0 2.0 0.00 0.00 0.00 42 1016.2
20260505152605 73 22 0.0 5.0 0.00 0.00 0.00 45 1016.5
20260505152105 73 31 2.0 3.0 0.00 0.00 0.00 48 1016.5
20260505151604 72 55 1.0 1.0 0.00 0.00 0.00 49 1016.5
20260505151105 71 52 1.0 2.0 0.00 0.00 0.00 47 1016.3
20260505150605 69 180 1.0 2.0 0.00 0.00 0.00 48 1016.3
20260505140104 61 168 1.0 2.0 0.00 0.00 0.00 65 1016.6
20260505130105 53 144 0.0 0.0 0.00 0.00 0.00 83 1016.1
20260505124605 51 158 0.0 0.0 0.00 0.00 0.00 87 1015.9
20260505124105 50 156 0.0 0.0 0.00 0.00 0.00 89 1015.9
20260505123605 50 160 0.0 1.0 0.00 0.00 0.00 89 1016.0
20260505123105 49 97 0.0 1.0 0.00 0.00 0.00 89 1016.0
20260505122604 49 158 0.0 0.0 0.00 0.00 0.00 89 1015.8
20260505122105 48 158 0.0 0.0 0.00 0.00 0.00 89 1015.8
20260505120604 47 180 0.0 0.0 0.00 0.00 0.00 89 1015.8
20260505120105 47 202 0.0 0.0 0.00 0.00 0.00 89 1015.7
20260505115604 47 180 0.0 0.0 0.00 0.00 0.00 89 1015.7
20260505115106 46 118 0.0 0.0 0.00 0.00 0.00 89 1015.4
20260505114605 46 181 0.0 0.0 0.00 0.00 0.00 89 1015.4
20260505113606 46 169 0.0 0.0 0.00 0.00 0.00 89 1015.4
20260505113105 46 84 0.0 0.0 0.00 0.00 0.00 89 1015.4
20260505112605 45 86 0.0 0.0 0.00 0.00 0.00 89 1015.2
20260505112104 45 178 0.0 0.0 0.00 0.00 0.00 89 1015.2
20260505111605 45 132 0.0 0.0 0.00 0.00 0.00 89 1015.2
20260505111105 45 163 0.0 0.0 0.00 0.00 0.00 89 1015.2
20260505110104 46 180 0.0 0.0 0.00 0.00 0.00 89 1015.0
20260505102105 46 131 0.0 0.0 0.00 0.00 0.00 89 1015.2
20260505101606 46 108 0.0 0.0 0.00 0.00 0.00 89 1015.2
20260505101105 46 141 0.0 0.0 0.00 0.00 0.00 89 1015.2
20260505100606 46 133 0.0 0.0 0.00 0.00 0.00 89 1015.2
20260505095605 73 91 0.0 1.0 0.00 0.00 0.00 38 1015.1
20260504232603 73 194 0.0 1.0 0.00 0.00 0.00 37 1013.8
20260504232104 73 192 1.0 2.0 0.00 0.00 0.00 37 1013.8
20260504231104 74 206 0.0 1.0 0.00 0.00 0.00 36 1013.7
20260504230104 74 202 0.0 1.0 0.00 0.00 0.00 34 1013.8
20260504225604 74 215 1.0 1.0 0.00 0.00 0.00 33 1013.8
20260504225103 74 206 1.0 2.0 0.00 0.00 0.00 33 1013.7
20260504224603 74 225 1.0 2.0 0.00 0.00 0.00 32 1013.7
20260504224105 74 213 0.0 1.0 0.00 0.00 0.00 31 1013.7
20260504223103 74 217 2.0 3.0 0.00 0.00 0.00 30 1013.8
20260504222603 75 273 1.0 5.0 0.00 0.00 0.00 29 1013.8
20260504222104 75 192 1.0 2.0 0.00 0.00 0.00 28 1013.8
20260504221604 75 202 1.0 2.0 0.00 0.00 0.00 28 1013.8
20260504221103 76 253 3.0 5.0 0.00 0.00 0.00 29 1013.8
20260504220603 76 145 3.0 5.0 0.00 0.00 0.00 30 1013.8
20260504220105 76 216 1.0 5.0 0.00 0.00 0.00 28 1013.7
20260504215103 78 190 2.0 3.0 0.00 0.00 0.00 29 1013.5
20260504214603 78 232 1.0 3.0 0.00 0.00 0.00 29 1013.5
20260504214104 77 195 1.0 2.0 0.00 0.00 0.00 31 1013.5
20260504213603 78 331 2.0 2.0 0.00 0.00 0.00 31 1013.5
20260504213103 77 191 2.0 3.0 0.00 0.00 0.00 34 1013.5
20260504212604 77 188 4.0 6.0 0.00 0.00 0.00 32 1013.5
20260504211103 77 200 4.0 6.0 0.00 0.00 0.00 33 1013.6
20260504210104 78 203 1.0 2.0 0.00 0.00 0.00 32 1013.6
20260504205604 78 189 2.0 3.0 0.00 0.00 0.00 32 1013.6
20260504205104 77 218 2.0 3.0 0.00 0.00 0.00 32 1013.8
20260504204603 78 221 1.0 5.0 0.00 0.00 0.00 33 1013.8
20260504204104 79 201 1.0 5.0 0.00 0.00 0.00 32 1013.8
20260504203604 78 235 2.0 3.0 0.00 0.00 0.00 32 1013.7
20260504203103 78 192 0.0 2.0 0.00 0.00 0.00 31 1013.7
20260504202103 78 85 1.0 5.0 0.00 0.00 0.00 31 1013.9
20260504201603 78 202 5.0 8.0 0.00 0.00 0.00 30 1014.1
20260504201103 79 247 5.0 8.0 0.00 0.00 0.00 31 1014.1
20260504200603 79 358 3.0 8.0 0.00 0.00 0.00 32 1014.1
20260504200104 80 97 3.0 6.0 0.00 0.00 0.00 31 1014.3
20260504195603 79 213 3.0 5.0 0.00 0.00 0.00 31 1014.3
20260504195104 80 242 2.0 3.0 0.00 0.00 0.00 29 1014.3
20260504194603 78 175 2.0 5.0 0.00 0.00 0.00 32 1014.3